GFSNE_700_spd_276.txt.gz
Wind_Speed
52 52 52 49 48 47 45 42 40 40 37 34 33 30 28 27 26 27 27 25 27 27 25 25 24 22 22 22 24 27 29 27 28 29 27 35 32 20
53 53 54 53 53 51 50 47 46 45 45 39 36 35 33 32 31 30 29 29 29 30 29 26 23 22 22 22 25 26 26 29 26 29 29 32 30 20
52 54 54 55 57 55 54 52 51 50 51 43 43 40 38 36 34 34 33 32 33 33 31 28 24 22 24 25 25 23 29 26 26 28 35 33 26 21
45 51 56 57 59 59 58 56 56 55 54 51 48 47 44 41 39 38 37 36 35 34 34 30 26 24 27 29 27 27 29 25 27 29 30 28 24 23
47 48 49 56 61 61 61 61 58 58 58 56 53 52 49 46 44 42 40 38 37 35 35 33 30 28 31 32 30 30 33 34 33 28 25 26 26 24
53 53 49 54 58 61 63 63 62 60 60 60 57 56 54 51 49 46 42 39 37 38 37 36 34 32 33 32 32 32 33 32 33 31 27 29 29 27
59 58 57 51 55 62 64 65 65 65 63 61 59 58 57 54 50 47 45 43 42 40 40 37 35 35 34 34 33 33 31 32 30 32 28 34 33 30
77 60 67 59 52 58 63 64 67 67 65 64 61 59 57 55 53 51 49 48 46 42 41 41 39 35 35 36 35 36 35 32 30 34 33 32 39 33
58 67 72 69 60 59 59 62 66 67 65 61 61 60 58 54 53 53 52 50 48 45 46 45 39 36 38 36 40 41 35 31 31 31 38 38 36 41
59 59 65 73 66 65 57 59 62 64 65 62 63 59 60 58 55 54 53 52 50 47 47 45 40 40 41 43 43 42 32 32 34 35 37 39 40 34
62 55 59 64 74 52 75 54 58 63 61 62 63 60 60 60 57 55 54 52 50 48 49 45 43 45 48 46 46 39 33 38 37 34 38 41 45 43
60 54 60 59 60 76 58 53 59 70 60 58 61 60 59 59 58 54 51 52 52 53 50 49 50 52 52 47 41 39 39 42 40 38 40 42 39 44
51 53 57 63 63 39 56 72 67 57 65 59 56 56 55 55 58 56 57 54 55 56 53 54 54 51 52 48 45 41 41 44 41 43 46 44 37 45
47 41 51 58 55 53 38 47 55 76 70 55 57 67 63 62 60 54 54 52 58 57 57 57 56 57 44 44 48 42 42 42 43 45 44 41 48 43
43 46 40 38 42 51 59 55 36 59 58 60 44 66 65 62 59 50 46 56 56 58 52 51 47 37 44 37 42 44 45 45 43 42 42 42 46 45
39 39 42 43 37 34 36 41 42 42 44 71 62 36 39 54 54 50 55 35 40 45 45 39 40 43 43 47 45 52 49 43 49 42 45 46 47 44
32 31 29 33 35 35 38 41 44 44 41 54 64 51 56 43 48 48 63 58 45 48 45 50 49 49 39 46 48 51 43 45 43 40 45 49 49 48
23 26 30 30 28 30 36 42 45 42 35 38 40 52 52 53 48 48 50 54 59 54 64 43 42 33 43 44 55 48 49 47 45 41 43 47 51 48
21 19 22 27 30 33 28 32 38 44 44 44 48 42 40 45 37 40 45 40 42 60 60 52 35 38 48 49 48 47 46 49 51 46 49 48 48 52
24 22 22 21 23 26 33 33 31 32 37 45 50 46 46 43 44 50 45 46 42 50 49 55 60 52 56 53 58 51 54 54 45 49 52 50 52 56
24 24 24 23 22 22 24 34 37 36 40 36 39 42 43 46 47 45 48 49 54 48 49 50 57 58 59 57 59 61 61 58 55 56 56 55 57 60
28 26 25 25 24 22 22 24 27 36 38 40 40 47 46 45 43 43 43 45 50 54 55 57 59 63 66 65 62 61 58 58 59 57 56 58 60 64
30 29 27 27 26 27 26 24 23 25 25 32 39 43 46 48 49 54 57 49 49 50 56 60 62 62 62 60 63 61 59 60 59 58 60 62 57 53

GFSNE_700_spd_279.txt.gz
Wind_Speed
53 52 51 49 49 48 47 46 46 45 43 38 37 35 34 33 31 31 31 30 30 31 31 29 26 26 24 22 23 24 24 22 22 21 23 24 27 31
54 57 55 52 51 50 51 50 50 50 52 45 43 40 38 37 36 35 34 33 33 33 34 34 31 29 26 25 26 27 26 26 24 21 22 25 26 25
44 45 55 54 54 54 52 52 51 53 55 50 49 48 45 42 39 38 38 37 37 36 37 36 35 33 30 28 29 30 26 29 28 27 27 28 25 24
47 46 42 47 55 56 56 55 55 55 54 55 53 54 52 49 46 44 42 42 41 39 40 40 39 38 34 31 32 33 30 30 31 30 30 28 27 26
61 54 47 44 46 49 52 56 58 58 59 57 55 53 57 55 54 50 48 45 44 43 40 42 43 41 38 35 34 36 31 32 33 31 32 30 29 28
47 55 54 47 50 50 48 50 51 54 57 58 59 58 58 57 58 56 54 50 48 46 43 44 45 43 42 39 36 37 33 34 34 33 32 33 30 30
46 44 64 59 60 45 53 55 51 53 49 51 57 61 62 60 58 57 59 56 53 51 49 47 47 45 44 42 40 38 37 35 35 34 32 32 30 31
53 51 51 56 55 61 69 46 44 48 51 51 55 58 58 62 60 59 60 60 59 54 53 50 49 48 47 45 42 40 39 36 36 37 36 32 32 35
54 55 54 54 51 49 62 56 59 57 55 50 53 53 58 62 60 61 61 60 58 57 58 55 53 51 49 47 44 42 41 38 39 39 39 36 34 39
50 51 52 53 52 47 47 54 55 60 64 64 63 55 54 54 59 59 59 59 59 61 59 58 54 52 51 48 45 44 43 43 43 44 42 39 38 38
49 51 53 54 53 53 51 52 53 55 54 67 73 61 53 49 53 58 63 60 62 60 59 58 54 55 54 49 47 46 46 47 45 45 42 41 40 38
48 51 51 53 56 54 54 57 59 61 57 58 60 72 61 54 45 57 67 64 60 61 57 59 56 56 56 51 47 48 50 50 44 44 44 45 45 46
48 47 47 49 52 52 53 53 54 51 57 56 55 61 72 61 63 69 62 63 60 62 56 57 58 54 56 54 51 51 52 51 50 53 52 49 47 46
46 43 47 43 45 50 51 53 53 50 48 51 50 53 59 69 77 74 64 61 54 56 58 57 57 54 54 54 56 56 56 54 54 46 47 49 44 44
36 44 49 53 54 44 41 51 53 50 56 56 51 44 48 55 72 74 78 56 57 60 60 62 57 55 56 56 56 57 56 58 52 48 44 43 44 45
31 35 37 41 43 45 51 45 42 41 39 42 46 41 50 44 48 50 51 75 71 63 62 60 59 58 59 62 59 48 50 44 45 46 48 49 53 45
23 24 31 37 36 36 40 46 42 43 43 41 40 40 40 45 41 50 50 47 56 65 39 53 59 45 51 62 70 62 48 53 38 46 43 49 48 44
27 24 24 26 30 34 28 33 45 45 45 44 45 43 42 43 36 32 47 42 51 53 49 40 35 48 46 62 74 62 61 51 47 39 42 46 46 46
28 26 26 24 26 28 29 34 38 44 42 42 44 47 45 39 39 36 40 44 50 46 40 45 48 61 62 49 44 50 51 53 64 52 37 40 44 45
32 30 27 27 27 25 24 27 30 32 36 33 37 46 50 49 42 48 43 38 42 43 43 41 37 49 47 43 50 47 43 49 56 53 50 52 54 58
33 32 32 30 28 27 26 25 24 28 32 35 32 28 41 44 44 48 49 46 44 48 50 49 44 43 45 49 55 53 57 58 51 52 51 58 60 63
32 33 33 33 32 30 29 25 26 25 26 28 30 26 28 30 43 40 40 44 49 54 49 52 53 53 54 51 53 56 61 56 58 56 60 60 61 62
31 33 34 34 34 33 32 30 27 26 26 26 27 26 23 26 31 32 33 39 43 50 51 52 53 49 60 57 50 58 64 64 56 52 57 63 59 55

GFSNE_700_spd_282.txt.gz
Wind_Speed
40 43 53 54 53 51 49 48 48 48 45 42 39 39 37 37 36 35 34 33 33 33 34 33 32 30 29 29 28 28 27 27 25 24 27 28 28 26
45 47 42 50 56 56 54 52 52 51 51 45 45 44 43 39 39 39 39 38 37 36 36 37 36 34 33 32 31 31 31 31 29 28 29 29 30 29
51 49 55 43 45 56 58 57 56 55 56 49 50 48 49 46 44 43 41 42 42 41 41 40 40 39 38 36 35 34 34 35 33 32 33 32 31 31
52 53 55 62 43 41 50 57 59 56 56 57 53 51 50 51 50 49 46 46 45 44 44 44 44 42 43 41 39 38 37 37 36 35 36 35 34 34
42 45 55 59 61 48 44 41 49 57 57 57 58 55 52 52 55 54 50 50 49 48 46 47 48 47 46 46 44 42 41 40 40 38 38 37 37 37
44 42 46 43 47 39 55 40 34 46 49 49 53 57 53 53 55 58 56 53 52 50 49 49 50 49 49 50 48 46 44 44 42 41 41 40 39 38
46 47 46 47 47 40 42 63 61 44 48 54 42 55 52 44 57 58 59 58 57 55 52 51 52 52 52 52 52 49 47 46 45 44 44 43 42 40
50 49 47 48 48 42 44 45 52 54 57 54 46 57 61 54 41 47 52 56 61 56 56 53 54 51 51 53 53 52 50 50 50 48 46 46 45 42
55 54 54 53 53 53 49 47 47 50 56 55 66 51 50 44 43 56 59 59 59 55 58 56 54 53 52 53 53 54 54 51 52 52 49 48 47 45
57 57 57 56 57 57 55 54 55 54 55 53 50 54 56 55 55 52 56 55 58 56 58 61 57 53 52 51 52 54 55 54 53 54 53 51 50 47
53 54 58 59 58 57 55 54 56 56 53 52 50 51 49 45 40 49 57 61 67 63 59 59 55 55 55 53 50 53 55 55 54 55 55 54 51 49
39 47 51 52 56 58 62 60 58 57 54 54 54 53 46 45 46 54 53 62 66 68 60 65 60 57 55 55 51 52 55 56 55 56 56 56 52 51
35 34 42 54 51 53 60 58 60 60 58 58 57 56 51 51 51 50 55 57 61 68 60 58 59 56 62 66 60 53 54 56 57 57 57 57 55 49
29 30 40 43 55 56 47 60 62 60 59 58 59 58 58 55 52 51 44 52 60 63 69 66 65 68 64 76 74 63 56 56 56 56 56 56 54 51
33 33 30 34 47 53 54 61 53 52 54 56 60 61 61 59 53 49 48 45 51 53 61 69 73 74 62 62 73 77 63 58 58 56 57 57 56 57
33 33 34 33 31 41 49 51 60 58 56 51 56 56 62 61 57 53 56 58 50 46 42 54 66 69 67 67 61 66 66 60 60 59 58 55 55 56
33 30 30 31 31 32 33 41 45 51 58 57 60 56 56 59 60 53 54 56 52 51 46 49 53 50 55 61 70 68 67 65 73 63 54 49 53 53
36 34 32 30 30 31 30 31 35 41 42 45 51 58 57 57 59 56 55 52 51 47 43 43 45 46 50 51 57 63 74 75 66 66 54 63 58 60
37 35 35 33 31 30 29 29 29 33 36 36 37 42 56 43 52 56 56 53 49 47 42 40 40 41 43 36 37 57 56 55 60 59 64 62 69 54
34 35 34 34 34 32 31 30 29 29 32 34 32 29 38 42 54 55 57 51 50 47 48 47 47 48 47 44 43 38 37 39 44 47 49 45 53 51
31 32 33 33 34 34 33 32 32 28 29 29 31 34 33 39 41 36 49 54 57 59 51 58 49 46 54 57 50 50 44 43 42 46 46 47 49 51
32 32 31 32 33 35 34 34 33 32 30 30 30 28 30 32 34 40 35 39 52 58 55 63 58 53 55 58 55 52 50 46 48 48 52 54 52 55
32 33 34 34 34 34 35 36 35 34 33 32 32 31 30 29 30 29 33 31 26 31 52 52 54 52 55 56 54 57 59 56 55 55 55 55 59 59

GFSNE_700_spd_285.txt.gz
Wind_Speed
46 46 45 46 47 47 48 49 49 50 49 45 39 40 38 36 37 36 35 34 33 34 35 36 35 33 31 30 30 30 29 27 28 30 30 29 29 29
49 48 38 44 45 40 41 46 51 53 56 50 49 43 43 44 41 39 39 38 38 38 38 38 39 39 38 36 34 33 32 31 30 32 32 33 32 32
49 51 49 45 51 46 42 45 48 53 58 57 55 52 50 50 50 47 42 42 41 40 40 41 41 42 41 40 39 37 36 35 35 34 35 36 35 35
37 54 72 68 65 56 50 49 51 47 61 60 55 57 57 53 51 55 51 49 47 45 44 43 44 44 44 44 44 42 40 40 39 38 37 38 38 37
43 46 45 55 47 50 56 63 55 60 59 50 53 58 59 57 55 56 56 55 54 49 46 46 47 46 46 46 47 47 45 44 44 42 41 40 41 40
45 45 44 43 46 50 55 56 62 49 65 43 64 71 57 53 55 56 55 55 58 57 52 50 50 49 49 50 49 50 50 47 46 46 46 45 43 43
51 49 50 47 50 47 48 48 51 55 67 57 71 56 45 48 48 49 53 53 62 65 62 59 54 53 51 50 51 51 50 50 49 49 49 49 48 46
54 55 55 55 53 51 50 49 50 53 50 59 62 57 59 48 39 47 37 46 52 57 61 54 55 55 54 52 49 50 49 50 51 52 51 52 51 51
51 57 58 59 59 58 57 55 54 51 52 52 52 48 48 45 44 47 39 37 43 48 57 62 58 51 45 49 49 51 52 52 52 53 52 52 53 53
35 42 56 60 61 62 62 59 58 57 54 53 56 56 47 45 43 45 44 47 57 48 49 57 55 56 49 47 47 50 52 53 53 54 55 53 52 53
29 30 36 45 58 63 64 64 63 62 63 61 60 60 59 54 49 46 48 41 45 45 53 60 51 55 54 49 46 47 50 53 53 53 55 55 53 53
30 29 28 31 39 49 58 63 65 65 63 64 58 61 52 53 52 53 54 54 51 50 46 46 49 44 52 57 55 51 52 53 54 51 50 53 55 57
34 32 33 30 27 38 47 49 55 62 64 65 64 63 54 60 57 55 53 57 57 55 51 52 51 51 50 50 52 53 52 55 56 54 50 50 55 62
38 36 36 35 32 29 33 46 49 49 56 54 59 63 62 64 63 60 62 61 61 62 57 59 58 55 51 52 54 52 56 56 57 56 59 61 70 70
42 40 37 37 37 35 32 30 39 49 48 55 60 51 61 62 64 64 63 61 60 65 66 62 62 60 55 51 51 53 56 64 63 66 68 68 67 69
44 43 40 38 36 36 36 34 34 32 42 50 51 56 59 58 58 65 65 68 66 66 66 67 65 62 59 52 50 52 53 51 54 61 63 63 65 70
42 43 41 40 38 34 33 34 34 34 34 32 40 48 57 62 67 59 58 57 63 68 68 67 65 65 61 54 53 54 51 54 53 46 51 62 67 61
39 40 40 39 39 37 34 32 32 32 34 35 33 32 40 46 54 61 63 64 64 63 65 70 64 68 62 57 56 54 54 51 48 41 41 51 60 61
37 37 37 36 36 36 36 34 32 32 33 33 35 35 32 35 41 47 53 61 63 63 60 64 69 58 56 60 55 54 51 50 45 43 43 49 49 47
36 35 34 34 33 33 34 35 34 33 33 33 33 33 33 33 33 37 34 45 53 59 64 63 65 59 58 65 61 55 53 49 48 45 47 44 42 40
36 35 34 34 32 32 32 33 34 33 33 34 34 33 33 32 30 31 34 33 30 32 47 46 43 62 58 60 62 54 52 53 51 47 44 43 46 47
36 36 35 34 34 33 33 33 34 35 34 35 35 35 34 34 32 30 30 33 30 31 32 32 48 50 55 54 58 63 56 53 57 59 58 54 50 53
34 35 36 36 35 34 34 35 35 35 35 36 36 36 35 35 35 33 31 30 29 30 29 28 28 31 44 58 55 61 65 69 62 64 55 54 51 55

GFSNE_700_spd_291.txt.gz
Wind_Speed
30 32 39 40 47 51 45 42 50 42 51 49 47 44 42 40 38 36 34 30 30 30 31 31 30 31 31 30 29 28 26 26 25 25 24 23 23 23
32 32 33 40 34 48 49 55 57 55 53 50 54 47 44 42 41 40 38 37 34 34 33 33 35 36 36 35 35 34 33 32 31 30 29 28 27 27
30 29 33 32 30 33 35 41 43 45 58 39 59 46 44 42 42 43 41 40 40 39 37 35 34 34 34 37 38 39 38 37 35 34 33 33 32 32
30 32 31 37 42 29 37 36 43 46 61 41 31 33 55 42 39 37 42 45 47 47 45 43 42 40 38 38 41 42 42 41 41 39 38 37 37 37
24 30 33 35 34 41 34 36 42 39 43 64 57 40 31 37 36 38 42 48 47 47 49 48 50 49 45 41 42 44 45 46 46 45 43 43 42 41
23 23 27 32 35 36 38 42 42 41 49 49 48 48 54 43 46 30 53 46 46 48 50 50 43 54 52 48 47 47 45 47 47 46 45 45 45 45
22 22 22 26 30 32 36 39 42 43 42 40 41 35 38 50 59 57 50 56 55 60 53 61 50 51 48 51 47 44 46 44 47 48 48 48 47 47
23 23 24 23 25 27 29 34 39 44 45 43 45 44 42 42 39 46 56 51 46 38 49 55 50 60 62 61 63 51 53 52 47 50 52 52 51 52
29 27 27 28 26 24 27 29 29 32 39 45 46 48 50 46 39 42 41 44 42 36 45 41 38 40 36 50 52 56 52 49 51 54 53 52 49 50
33 33 33 33 32 30 27 26 28 29 30 35 42 46 48 50 49 48 45 42 47 47 45 48 38 39 40 39 40 35 41 51 50 50 48 51 52 51
28 32 36 36 37 37 35 31 27 28 31 32 34 38 44 49 52 56 59 59 57 52 40 48 44 44 38 42 41 41 44 51 50 50 53 55 55 55
26 28 30 33 37 39 40 40 36 32 30 31 32 34 35 39 47 55 58 58 59 61 57 53 54 51 51 48 43 47 52 45 46 46 46 55 52 56
28 30 31 32 32 34 39 42 43 40 36 35 32 33 34 32 36 44 51 59 60 62 60 62 62 54 55 58 51 49 50 47 47 51 56 58 55 53
28 31 34 35 36 35 36 39 41 43 42 40 38 35 35 33 32 33 41 47 54 62 63 57 62 63 65 64 61 53 55 55 53 54 55 55 62 58
35 37 37 39 42 39 39 39 40 41 43 43 42 41 38 37 35 33 33 37 45 48 54 58 61 63 62 67 69 65 60 60 60 57 57 56 55 56
35 38 42 45 44 46 41 40 40 41 41 42 43 43 42 40 38 37 33 33 33 39 47 50 56 63 65 65 65 66 70 67 64 65 63 65 63 62
43 45 45 48 50 48 45 40 40 40 40 41 41 42 42 42 40 38 37 35 35 33 32 40 49 56 60 61 65 67 72 65 65 71 71 70 70 69
46 49 50 51 53 49 46 44 40 37 36 37 38 38 39 40 41 40 37 37 36 35 36 35 34 38 46 56 60 62 61 64 65 64 60 65 69 72
46 48 50 50 49 48 46 43 42 36 34 34 34 34 35 35 37 39 39 37 38 36 35 35 37 35 37 40 45 51 58 62 65 62 65 69 67 66
46 46 47 48 48 47 46 42 40 37 33 33 33 33 32 33 33 35 36 38 38 38 37 36 34 36 37 38 40 39 38 45 50 61 67 66 64 67
46 46 45 45 46 45 43 40 38 36 33 32 32 32 33 33 34 33 33 34 37 38 39 36 34 34 36 38 37 35 34 39 40 43 47 54 59 63
45 45 46 45 44 43 40 37 36 34 33 33 32 32 32 34 35 35 35 35 35 36 38 38 36 35 37 38 37 36 32 28 32 32 35 43 43 48
44 46 46 44 41 39 38 34 33 32 31 32 33 33 33 34 34 34 35 34 35 35 36 37 37 37 37 39 37 36 36 35 32 28 28 28 33 45

GFSNE_700_spd_297.txt.gz
Wind_Speed
28 32 38 38 38 42 41 41 42 52 53 50 48 47 48 52 52 49 47 45 44 43 37 35 35 34 36 36 35 34 33 31 29 28 28 27 25 24
28 29 31 38 39 37 40 36 46 39 42 47 39 47 52 54 53 56 53 51 51 50 45 39 38 37 36 36 36 36 36 35 33 31 30 29 29 29
29 29 29 30 34 40 39 42 41 41 48 38 52 46 43 51 59 59 55 53 57 53 50 46 45 42 42 42 41 40 38 37 36 36 36 36 35 34
30 29 29 29 29 31 35 39 42 47 48 44 39 45 46 45 53 57 58 59 63 58 57 53 49 48 47 47 46 45 43 43 43 43 42 40 40 39
32 32 31 29 28 28 28 30 33 40 44 46 52 36 50 46 46 52 54 60 67 60 60 56 55 52 52 50 49 49 48 46 46 47 45 44 43 41
35 35 34 32 29 28 28 27 27 30 35 39 42 48 45 45 41 47 41 48 53 60 60 56 64 63 58 55 53 55 53 51 50 49 49 48 47 45
34 35 35 35 33 32 30 29 29 27 28 29 30 33 40 43 45 47 47 47 47 54 53 64 58 60 67 71 59 54 54 52 50 52 54 54 50 49
34 34 34 34 35 33 32 33 33 33 31 30 28 27 28 32 37 44 46 51 42 46 49 47 60 70 63 64 63 60 60 59 61 55 50 54 48 50
27 29 29 28 27 27 28 30 31 34 36 36 34 31 28 28 32 36 41 43 46 46 48 46 44 43 62 66 49 55 49 55 54 58 58 51 49 48
26 26 26 25 22 22 21 19 20 22 27 34 37 37 35 33 31 31 33 36 41 43 47 53 47 47 43 46 50 54 61 68 66 56 64 65 63 64
27 25 21 17 13 8 6 10 10 15 18 22 26 31 37 38 38 36 35 36 36 36 36 52 51 53 51 50 46 45 50 54 53 50 53 52 53 58
25 24 22 19 17 16 18 17 19 21 20 20 23 25 29 34 38 42 41 41 41 36 35 41 43 48 56 54 54 47 49 43 44 52 52 47 49 53
29 27 26 25 24 24 24 26 27 29 29 29 30 30 28 29 33 38 42 45 46 45 39 40 41 41 44 55 59 53 57 52 52 52 54 53 51 52
33 32 31 31 29 30 30 31 33 35 36 36 36 36 35 33 32 35 39 43 46 49 46 42 44 44 44 47 50 59 53 55 58 56 61 60 55 57
37 36 36 36 36 35 36 37 39 41 42 41 41 41 40 39 40 39 38 42 44 46 49 46 46 47 47 46 49 46 52 52 53 59 60 68 65 63
39 40 39 38 38 38 38 39 41 42 43 44 45 44 43 43 45 45 43 41 43 44 45 46 47 48 48 49 48 47 42 46 50 54 59 61 65 66
39 41 39 39 40 40 41 42 42 43 46 46 44 45 45 48 48 48 47 43 43 43 43 44 45 48 49 48 49 49 46 45 44 45 48 55 59 62
42 39 36 37 39 42 44 45 47 46 43 43 44 46 50 51 51 49 47 45 43 42 43 42 43 44 46 47 47 49 48 47 43 40 43 48 50 52
41 44 44 47 50 51 46 43 43 42 42 44 46 49 49 51 51 50 48 46 43 41 41 41 41 42 44 45 45 46 46 47 44 41 41 41 44 45
43 41 40 41 41 41 41 41 41 42 43 44 45 47 47 47 47 48 47 45 42 40 39 38 38 39 41 43 45 44 43 43 45 45 41 39 43 40
35 38 39 40 39 40 40 40 41 42 43 44 45 47 47 47 45 43 43 42 40 39 39 38 36 36 38 40 42 42 41 40 40 42 43 42 40 40
36 38 39 39 40 40 40 41 42 43 44 45 46 45 45 43 41 40 39 39 39 39 39 37 36 36 38 39 40 41 40 39 35 37 38 39 40 40
38 39 39 39 39 40 41 42 44 45 45 45 44 43 41 40 37 37 37 37 38 38 38 37 36 37 38 38 39 40 40 40 38 33 35 36 39 40

GFSNE_700_spd_303.txt.gz
Wind_Speed
22 23 25 27 29 30 32 35 35 39 37 33 33 38 41 52 46 41 46 54 53 50 46 46 44 41 40 40 39 38 38 39 39 38 37 36 34 32
27 27 28 28 30 31 33 34 37 39 40 38 36 37 38 41 45 54 45 37 54 62 53 52 48 47 45 44 40 37 35 37 39 39 39 39 37 36
31 31 31 31 31 32 34 36 38 40 41 38 39 38 40 38 42 42 48 44 46 40 47 55 56 52 51 49 49 45 43 40 40 41 40 41 41 40
33 33 35 36 36 36 37 38 40 42 42 40 38 39 38 39 39 44 41 46 48 48 48 53 46 60 56 53 54 52 50 49 46 45 43 43 42 42
36 36 36 37 38 39 39 40 42 43 44 42 40 38 39 37 36 39 41 42 45 47 45 38 57 55 59 59 57 56 54 53 51 50 48 46 45 45
38 36 36 37 38 39 40 40 42 43 42 43 42 39 38 39 37 35 35 37 40 46 49 47 34 41 40 58 61 59 58 54 52 52 53 51 50 48
41 39 38 37 38 37 38 38 39 42 41 39 39 39 39 39 38 37 36 34 35 37 42 45 58 39 34 47 45 57 62 60 58 57 55 56 56 54
40 39 40 39 37 36 36 35 34 35 34 34 33 33 35 38 39 39 38 36 34 34 32 34 40 46 48 42 42 36 51 60 57 60 61 60 60 58
46 42 43 43 41 38 36 35 34 32 30 29 28 24 23 25 29 33 37 36 37 36 34 30 31 36 40 43 52 47 36 43 50 58 62 64 65 61
48 46 46 44 43 39 36 34 34 32 30 26 19 16 13 14 17 20 24 26 27 30 36 33 32 30 30 32 34 45 46 48 42 44 48 60 65 62
54 55 56 45 45 41 37 35 31 29 26 23 20 17 17 16 16 17 18 20 21 19 24 27 31 34 32 30 31 29 36 42 45 51 42 41 50 62
53 49 50 45 45 41 36 35 33 30 29 26 25 24 22 21 20 20 21 22 22 21 21 21 20 29 34 34 33 32 32 35 35 42 46 51 41 40
51 56 62 48 45 36 36 37 35 33 32 31 30 28 27 26 26 25 25 26 25 25 27 28 23 23 24 30 36 37 36 33 32 35 38 43 47 48
48 44 47 38 41 37 37 39 37 37 35 34 34 32 31 30 30 30 29 29 29 29 29 32 31 30 30 27 27 32 39 39 37 36 34 37 40 47
37 38 38 31 35 40 36 36 35 36 36 37 36 35 33 33 33 33 34 34 33 32 31 32 34 34 36 36 33 31 33 37 38 41 41 38 37 38
30 36 36 35 35 36 37 35 36 37 35 35 35 35 35 35 35 35 37 37 37 35 34 33 34 36 38 41 43 39 36 36 37 40 44 43 40 38
23 25 28 30 31 32 35 35 31 31 32 34 35 36 37 36 36 38 39 38 38 37 36 36 36 38 41 44 47 46 40 37 37 39 41 43 42 42
21 22 24 25 26 28 29 32 40 43 43 36 36 38 39 40 40 38 37 38 37 36 37 38 40 41 44 47 47 47 44 40 36 37 38 40 41 42
19 20 24 27 29 29 30 30 31 33 33 35 38 41 40 39 37 36 36 36 37 37 37 38 41 42 44 47 47 46 45 40 35 34 38 39 40 40
21 21 22 24 24 26 28 31 31 33 32 31 33 34 34 35 35 35 35 37 38 39 40 40 41 40 42 45 47 45 41 39 37 35 33 36 39 38
26 26 27 28 29 28 28 28 27 28 29 30 31 33 34 35 36 37 37 38 40 41 42 42 41 40 40 42 45 44 40 36 35 36 32 35 34 36
31 32 33 33 32 32 33 33 33 33 33 34 32 33 35 36 37 38 39 40 42 42 44 43 41 39 38 39 40 40 38 35 33 34 35 33 34 36
31 32 32 32 33 32 32 33 34 34 34 34 34 36 37 38 38 40 41 42 43 43 42 41 38 36 36 34 35 35 35 34 32 32 33 32 34 36

GFSNE_700_spd_309.txt.gz
Wind_Speed
32 31 31 31 31 31 32 31 33 34 30 27 26 29 31 30 31 29 31 33 33 34 39 45 42 47 54 49 46 44 43 42 40 39 38 38 37 39
34 35 35 34 36 37 36 35 34 37 38 33 31 32 33 32 33 32 31 33 34 35 37 36 37 41 41 57 48 47 51 49 46 42 40 40 38 40
39 37 37 36 37 37 38 40 39 38 40 39 36 35 37 37 35 35 34 35 36 35 36 38 39 38 38 44 51 53 52 56 55 49 43 41 40 39
41 42 42 42 41 40 38 39 40 40 40 42 38 36 37 39 40 37 37 37 37 39 37 38 38 40 41 39 45 47 47 51 59 62 50 45 44 42
47 46 45 44 46 46 43 41 42 42 42 44 43 41 38 39 41 42 39 41 40 40 39 39 41 38 39 42 42 43 44 44 50 53 55 53 49 47
49 43 39 38 40 39 41 47 46 45 45 45 45 43 41 39 41 44 44 42 40 41 41 44 41 41 39 40 42 44 42 42 43 45 51 58 56 53
57 57 56 52 48 47 50 48 50 50 49 49 47 45 42 39 40 42 47 42 41 40 42 46 42 39 40 40 41 40 45 45 47 50 51 46 48 60
61 61 61 61 59 56 56 56 50 53 53 51 48 48 44 40 41 41 44 41 40 40 43 40 41 40 40 42 42 41 40 43 46 46 53 55 53 44
62 63 63 62 62 60 57 61 58 54 54 53 52 48 43 41 43 42 40 39 37 36 37 37 39 39 41 42 42 42 41 40 42 46 53 51 54 69
57 57 57 57 49 44 52 55 65 58 55 54 52 49 44 44 42 41 40 37 34 32 34 33 33 33 34 38 41 41 41 39 40 39 45 47 47 53
45 47 43 46 48 45 49 56 59 64 57 55 54 51 49 42 41 39 36 34 32 30 30 30 27 26 25 27 31 33 37 40 40 41 40 41 40 41
43 44 42 41 42 43 48 49 53 63 68 55 54 46 47 50 44 39 36 36 33 30 29 26 25 24 22 22 22 22 24 28 34 39 41 41 39 39
44 44 40 38 39 41 42 44 52 53 51 48 50 46 48 49 43 39 37 37 35 31 30 28 25 24 24 23 23 23 21 19 20 23 31 37 41 39
42 40 36 37 38 39 40 41 37 55 67 50 46 48 47 44 43 42 38 36 34 33 31 31 29 26 25 24 25 26 26 26 26 25 23 24 31 36
37 36 33 31 31 37 34 35 30 39 42 39 35 37 40 37 36 36 37 38 35 34 34 33 33 31 28 28 26 26 28 28 28 28 27 26 24 24
33 27 31 30 27 28 19 23 26 30 31 26 21 21 29 30 26 34 35 34 35 34 35 34 35 35 33 32 31 30 29 30 28 30 31 29 27 25
27 28 26 27 24 24 16 12 13 26 29 25 22 21 21 28 28 28 29 30 33 34 34 34 35 35 35 35 35 33 32 32 32 30 31 32 29 29
30 29 26 23 21 20 17 11 9 7 11 16 19 21 26 29 32 29 27 29 31 32 32 33 33 34 36 36 36 35 34 34 33 33 33 34 33 31
30 24 22 24 21 20 18 16 14 12 15 16 17 21 21 25 28 30 34 34 33 33 33 32 32 34 37 38 37 36 37 33 35 34 34 35 34 33
27 26 26 27 25 23 20 19 18 17 17 17 18 20 21 24 27 30 31 34 37 37 36 38 42 42 42 41 40 36 35 34 33 35 35 36 36 35
26 24 23 24 27 26 24 22 21 20 20 21 22 23 24 24 24 25 27 28 28 29 31 31 31 31 33 33 35 34 32 34 36 36 37 38 39 39
24 24 25 25 26 28 28 27 26 25 25 25 25 27 27 28 29 28 28 27 28 29 29 30 30 31 32 33 34 34 35 36 38 39 38 39 39 41
24 23 24 25 26 26 27 28 28 27 26 26 26 27 28 29 29 30 30 30 31 31 32 33 32 33 33 34 35 36 36 37 38 39 42 39 38 37